Погода в Поселке им. Тимирязева

Россия / Нижегородская область     56°42′58″N   43°24′30″E
темп.,
°C
ветер,
м/с
пор.,
м/с
влажн.,
%
обл.,
%
осадки,
мм/ч
давл.,
гПа
погр.,
м
6 марта, сб
сб600:00−14сз469230 0.0 1011108
03:00−16зсз349215 0.0 101337
06:00−16з339453 0.0 101452
09:00−13з359475 0.1 1015245
12:00−10зсз2492100 0.1 1015396
15:00−8з2487100 0.1 1013483
18:00−11зсз3390100 0.1 101364
21:00−15з239467 0.1 101320
7 марта, вс
вс700:00−16зюз22960 0.0 101220
03:00−17ююз33970 0.0 101027
06:00−17ю459762 0.0 100789
09:00−10ю6119081 0.0 1004430
12:00−6ю71293100 0.4 10001018
15:00−6ююз71193100 1.6 9951010
18:00−5ю61295100 1.4 991704
21:00−5зюз61192100 2.8 990650
8 марта, пн
пн800:00−8з61393100 0.6 990710
03:00−9зюз61486100 0.7 991490
06:00−10юз51194100 0.0 991318
09:00−8зюз4894100 0.1 992360
12:00−6зюз3589100 0.1 992593
15:00−6сз4687100 0.1 994559
18:00−8сз4895100 0.2 996350
21:00−10сз61192100 0.3 999465
9 марта, вт
вт900:00−12сз51193100 0.1 1001390
03:00−14сз51093100 0.1 1004401
06:00−16сз4995100 0.1 1007273
09:00−16сз5894100 0.1 1009398
12:00−14сз4691100 0.0 1011511
15:00−14сз4789100 0.1 1012609
18:00−16сз3794100 0.1 1013173
21:00−19сз4797100 0.1 1016162
10 марта, ср
ср1000:00−22ссз349984 0.0 101753
03:00−25ссз349943 0.0 101844
06:00−27ссз33994 0.0 102044
09:00−25с35953 0.0 1021208
12:00−21сз349544 0.0 1022348
15:00−19ссз469372 0.0 1022365
18:00−22ссз349690 0.0 102243
21:00−24ссз239855 0.0 102420